Location: Buffign�court
(47.8126°N, 6.0176°E)
Time: 19:12:01
(UTC+00:00)

USA 215 - Pass Details

Date: 16 June 2021
Orbit: 1100 x 1107 km, 123.0° (Epoch: 22 June)

Event Time Altitude Azimuth Distance (km) Brightness Sun altitude
Rises 23:18:59 0° 55° (NE) 3,923 6.6 -18.7°
Reaches altitude 10° 23:21:29 10° 53° (NE) 2,964 5.9 -18.7°
Maximum altitude 23:27:57 68° 332° (NNW) 1,178 3.6 -18.8°
Drops below altitude 10° 23:34:25 10° 251° (WSW) 2,956 5.3 -18.8°
Sets 23:36:54 0° 249° (WSW) 3,912 5.9 -18.8°
